Weather History for Clinton, BC

Change the Weather History Date:

Tuesday, May 20, 2014

  Actual Average Record
Temperature  
Mean Temperature 52 °F -  
Max Temperature 68 °F 58 °F 69 °F (2011)
Min Temperature 37 °F 35 °F 26 °F (2003)
Degree Days  
Heating Degree Days 12    
Growing Degree Days 2 (Base 50)    
Moisture  
Dew Point 40 °F    
Average Humidity 63    
Maximum Humidity 93    
Minimum Humidity 20    
Precipitation  
Precipitation 0.00 in - - ()
Sea Level Pressure  
Sea Level Pressure 30.03 in    
Wind  
Wind Speed 5 mph ()    
Max Wind Speed 10 mph    
Max Gust Speed 17 mph    
Visibility 9.0 miles    
Events      
Averages and records for this station are not official NWS values.
T = Trace of Precipitation, MM = Missing Value Source: Averaged Metar Reports

Daily Weather History Graph

Daily Weather History Graph

Search for Another Location

Airport:

Trip Planner

Search our weather history database for the weather conditions in past years. The results will help you decide how hot, cold, wet, or windy it might be!

Date:

Astronomy

May. 20, 2014 Rise Set
Actual Time 5:08 AM PDT 8:57 PM PDT
Civil Twilight 4:26 AM PDT 9:39 PM PDT
Nautical Twilight 3:28 AM PDT 10:38 PM PDT
Astronomical Twilight 1:53 AM PDT 12:18 AM PDT
Moon 1:13 AM PDT (5/20) 11:41 AM PDT (5/20)
Length of Visible Light 17h 13m
Length of Day
15h 48m
Waning Gibbous, 59% of the Moon is Illuminated
May 20
Waning Gibbous
May 21
Last Quarter
May 28
New
Jun 5
First Quarter
Jun 12
Full

Hourly Weather History & Observations

Time (PDT) Temp. Windchill Dew Point Humidity Pressure Visibility Wind Dir Wind Speed Gust Speed Precip Events Conditions
12:00 AM 42.8 °F 39.3 °F 41.0 °F 93% 30.03 in 9.0 mi WSW 5.8 mph - N/A   Unknown
1:00 AM 42.8 °F 39.3 °F 41.0 °F 93% 30.03 in 9.0 mi WSW 5.8 mph - N/A   Unknown
2:00 AM 41 °F - 40 °F 92% 30.05 in 9 mi SW 4.6 mph - -  
2:00 AM 41.0 °F 38.0 °F 39.2 °F 93% 30.05 in 9.0 mi SW 4.6 mph - N/A   Unknown
3:00 AM 41.0 °F 38.0 °F 39.2 °F 93% 30.06 in 9.0 mi SSW 4.6 mph - N/A   Unknown
4:00 AM 41.0 °F 39.0 °F 39.2 °F 93% 30.05 in 9.0 mi SSW 3.5 mph - N/A   Unknown
5:00 AM 39 °F - 38 °F 93% 30.08 in 9 mi SW 2.3 mph - -  
5:00 AM 39.2 °F - 37.4 °F 93% 30.08 in 9.0 mi SW 2.3 mph - N/A   Unknown
6:00 AM 39.2 °F - 37.4 °F 93% 30.09 in 9.0 mi SW 2.3 mph - N/A   Unknown
7:00 AM 44.6 °F 43.1 °F 42.8 °F 93% 30.08 in 9.0 mi South 3.5 mph - N/A   Unknown
8:00 AM 47 °F - 42 °F 79% 30.09 in 9 mi South 3.5 mph - -  
8:00 AM 46.4 °F 44.3 °F 42.8 °F 87% 30.09 in 9.0 mi SSW 4.6 mph - N/A   Unknown
9:00 AM 50.0 °F - 42.8 °F 76% 30.08 in 9.0 mi South 6.9 mph - N/A   Unknown
10:00 AM 53.6 °F - 42.8 °F 67% 30.07 in 9.0 mi South 5.8 mph - N/A   Unknown
11:00 AM 59 °F - 43 °F 45% 30.04 in 9 mi South 5.8 mph - -  
11:00 AM 59.0 °F - 42.8 °F 55% 30.04 in 9.0 mi SE 6.9 mph - N/A   Unknown
12:00 PM 62.6 °F - 42.8 °F 48% 30.03 in 9.0 mi SE 10.4 mph - N/A   Unknown
1:00 PM 62.6 °F - 42.8 °F 48% 30.02 in 9.0 mi SSE 8.1 mph - N/A   Unknown
2:00 PM 65 °F - 45 °F 37% 30.01 in 9 mi South 6.9 mph - -  
2:00 PM 64.4 °F - 44.6 °F 49% 30.01 in 9.0 mi SE 8.1 mph - N/A   Unknown
3:00 PM 64.4 °F - 42.8 °F 45% 30.00 in 9.0 mi SSE 3.5 mph - N/A   Unknown
4:00 PM 68.0 °F - 35.6 °F 30% 29.98 in 9.0 mi South 8.1 mph - N/A   Unknown
5:00 PM 67 °F - 35 °F 20% 29.97 in 9 mi SSW 5.8 mph - -  
5:00 PM 66.2 °F - 35.6 °F 32% 29.97 in 9.0 mi WSW 6.9 mph - N/A   Unknown
6:00 PM 66.2 °F - 37.4 °F 35% 29.97 in 9.0 mi WSW 5.8 mph - N/A   Unknown
7:00 PM 62.6 °F - 37.4 °F 39% 29.96 in 9.0 mi WSW 8.1 mph - N/A   Unknown
8:00 PM 59 °F - 36 °F 30% 29.96 in 9 mi WSW 6.9 mph - -  
8:00 PM 59.0 °F - 35.6 °F 42% 29.96 in 9.0 mi West 6.9 mph 17.3 mph N/A   Unknown
9:00 PM 55.4 °F - 37.4 °F 51% 29.98 in 9.0 mi WSW 5.8 mph - N/A   Unknown
10:00 PM 50.0 °F - 39.2 °F 66% 30.00 in 9.0 mi SW 4.6 mph - N/A   Unknown
11:00 PM 50 °F - 38 °F 53% 30.00 in 9 mi West 5.8 mph - -  
11:00 PM 50.0 °F - 37.4 °F 62% 30.00 in 9.0 mi West 5.8 mph - N/A   Unknown